Location: ????????
(56.1167°N, 38.6333°E)
Time: 22:10:13
(UTC+00:00)

Cosmos 2233 Rocket - Pass Details

Date: 18 November 2025
Orbit: 953 x 989 km, 82.9° (Epoch: 06 December)

Event Time Altitude Azimuth Distance (km) Brightness Sun altitude
Rises 13:56:34 0° 168° (SSE) 3,686 7.2 -6.2°
Reaches altitude 10° 13:59:09 10° 163° (SSE) 2,744 6.5 -6.5°
Maximum altitude 14:05:10 49° 91° (E) 1,256 4.3 -7.3°
Drops below altitude 10° 14:11:13 10° 19° (NNE) 2,763 6.0 -8.1°
Sets 14:13:49 0° 14° (NNE) 3,714 6.7 -8.4°
